TimeEST,TemperatureF,Dew PointF,Humidity,Sea Level PressureIn,VisibilityMPH,Wind Direction,Wind SpeedMPH,Gust SpeedMPH,PrecipitationIn,Events,Conditions,WindDirDegrees,DateUTC
12:27 AM,26.1,21.0,81,30.29,8.0,NNW,8.1,-,0.00,Snow,Light Snow,330,2014-02-06 05:27:00
12:54 AM,26.1,21.0,81,30.32,8.0,NW,9.2,-,0.00,Snow,Light Snow,310,2014-02-06 05:54:00
1:28 AM,26.1,21.9,84,30.29,4.0,NW,4.6,-,0.00,Snow,Light Snow,310,2014-02-06 06:28:00
1:54 AM,26.1,21.9,84,30.32,4.0,Calm,Calm,-,0.00,Snow,Light Snow,0,2014-02-06 06:54:00
2:54 AM,25.0,21.0,85,30.34,4.0,NNW,10.4,-,0.01,Snow,Light Snow,340,2014-02-06 07:54:00
3:54 AM,25.0,19.9,81,30.34,8.0,NNW,5.8,-,0.00,Snow,Light Snow,330,2014-02-06 08:54:00
4:54 AM,24.1,19.0,81,30.36,6.0,NNW,9.2,-,0.00,Snow,Light Snow,340,2014-02-06 09:54:00
5:54 AM,24.1,19.9,84,30.36,8.0,NNW,5.8,-,0.00,Snow,Light Snow,340,2014-02-06 10:54:00
6:54 AM,24.1,19.9,84,30.38,9.0,Calm,Calm,-,0.00,Snow,Light Snow,0,2014-02-06 11:54:00
7:54 AM,24.1,19.0,81,30.40,8.0,Variable,3.5,-,0.00,Snow,Light Snow,0,2014-02-06 12:54:00
8:26 AM,24.1,19.0,81,30.37,2.5,WNW,4.6,-,0.00,Snow,Light Snow,300,2014-02-06 13:26:00
8:54 AM,24.1,19.9,84,30.41,2.5,Calm,Calm,-,0.00,Snow,Light Snow,0,2014-02-06 13:54:00
9:48 AM,24.8,21.2,86,30.39,4.0,SW,3.5,-,0.00,Snow,Light Snow,230,2014-02-06 14:48:00
9:54 AM,26.1,21.0,81,30.42,4.0,West,4.6,-,0.00,Snow,Light Snow,270,2014-02-06 14:54:00
10:54 AM,27.0,19.9,75,30.43,9.0,Variable,5.8,-,0.00,Snow,Light Snow,0,2014-02-06 15:54:00
11:54 AM,27.0,19.0,72,30.43,9.0,WSW,3.5,-,0.00,Snow,Light Snow,250,2014-02-06 16:54:00
12:54 PM,28.0,19.0,69,30.40,9.0,West,6.9,-,0.00,Snow,Light Snow,260,2014-02-06 17:54:00
1:54 PM,28.0,18.0,66,30.36,10.0,West,3.5,-,0.00,,Overcast,270,2014-02-06 18:54:00
2:54 PM,28.0,18.0,66,30.35,10.0,WNW,6.9,-,N/A,,Overcast,300,2014-02-06 19:54:00
3:54 PM,28.9,19.9,69,30.35,9.0,NW,3.5,-,N/A,,Overcast,320,2014-02-06 20:54:00
4:54 PM,28.0,19.9,72,30.35,10.0,West,5.8,-,0.00,,Overcast,270,2014-02-06 21:54:00
5:54 PM,28.0,21.0,75,30.35,7.0,West,5.8,-,0.00,Snow,Light Snow,270,2014-02-06 22:54:00
6:54 PM,27.0,21.0,78,30.37,9.0,WSW,5.8,-,0.00,Snow,Light Snow,250,2014-02-06 23:54:00
7:54 PM,27.0,21.0,78,30.38,10.0,SW,6.9,-,0.00,,Overcast,230,2014-02-07 00:54:00
8:54 PM,27.0,21.0,78,30.39,10.0,WSW,8.1,-,N/A,,Overcast,240,2014-02-07 01:54:00
9:54 PM,27.0,21.0,78,30.39,10.0,WSW,5.8,-,N/A,,Overcast,250,2014-02-07 02:54:00
10:54 PM,27.0,21.0,78,30.37,9.0,Variable,4.6,-,0.00,Snow,Light Snow,0,2014-02-07 03:54:00
11:54 PM,26.1,21.0,81,30.36,7.0,NW,5.8,-,0.00,Snow,Light Snow,310,2014-02-07 04:54:00